#timestamp,LO_Frequency,Hit,StdDev 
1644548415.9,286046997.9,N
1644548435.7,286046998.5,N
1644548455.6,286047006.6,N
1644548475.4,286047016.0,N
1644548495.2,286047012.1,N
1644548515.1,286047004.5,N
1644548516.0,286047004.5,N
1644548535.8,286047005.3,N
1644548555.7,286047007.0,N
1644548575.5,286047001.3,N
1644548595.3,286047001.5,N
1644548615.2,286047004.4,N
1644548635.0,286047004.1,N
1644548635.9,286047004.1,N
1644548655.7,286046995.8,N
1644548675.6,286046997.7,N
1644548695.4,286046994.6,N
1644548715.3,286046989.1,N
1644548735.1,286046987.0,N
1644548736.0,286046987.0,N
1644548755.8,286046983.2,N
1644548775.7,286046990.9,N
1644548795.5,286046993.5,N
1644548815.3,286046991.3,N
1644548835.2,286046989.1,N
1644548855.0,286046988.2,N
1644548855.9,286046988.2,N
1644548875.8,286046988.7,N
1644548895.6,286046996.2,N
1644548915.4,286047000.5,N
1644548935.3,286047008.7,N
1644548955.1,286047000.2,N
1644548975.8,286047001.9,N
1644548995.7,286047009.2,N
1644549015.5,286047008.5,N
1644549035.4,286047002.7,N
1644549055.2,286047000.1,N
1644549075.0,286046999.7,N
1644549075.9,286046999.7,N
1644549095.8,286047005.8,N
1644549115.6,286047004.0,N
1644549135.4,286046999.8,N
1644549155.3,286047003.4,N
1644549175.1,286047004.6,N
1644549195.9,286047007.5,N
1644549215.7,286047000.7,N
1644549235.5,286046996.4,N
1644549255.4,286047000.0,N
1644549275.2,286047008.6,N
1644549295.0,286047010.7,N
1644549295.9,286047010.7,N
1644549315.8,286047009.9,N
1644549335.6,286047012.0,N
1644549355.5,286047016.5,N
1644549375.3,286047013.4,N
1644549395.1,286047007.2,N
1644549415.9,286047011.1,N
1644549435.7,286047018.7,Y
1644549455.6,286047008.4,P
1644549475.4,286047004.0,N
1644549495.2,286047000.3,N
1644549515.1,286046993.3,N
1644549516.0,286046993.3,N
1644549535.8,286047000.9,N
1644549555.6,286047004.7,N
1644549575.5,286047004.0,N
1644549595.3,286047004.4,N
1644549615.2,286047001.4,N
1644549635.9,286047003.7,N
1644549655.7,286047007.2,N
1644549675.6,286046999.1,N
1644549695.4,286047002.7,N
1644549715.2,286047000.1,N
1644549735.1,286047007.4,N
1644549736.0,286047007.4,N
1644549755.8,286047013.5,Y
1644549775.7,286047006.1,P
1644549795.5,286047003.0,N
1644549815.3,286047005.6,P
1644549835.2,286047002.5,N
1644549855.0,286047003.8,N
1644549855.9,286047003.8,N
1644549875.7,286047003.0,N
1644549895.6,286047006.0,Y
1644549915.4,286046998.6,P
1644549935.3,286046997.4,N
1644549955.1,286046992.1,N
1644549956.0,286046992.1,N
1644549975.8,286046987.5,N
1644549995.7,286046989.9,N
1644550015.5,286046990.6,N
1644550035.3,286046991.8,N
1644550055.2,286046993.4,N
1644550075.0,286047000.5,N
1644550075.9,286047000.5,N
1644550095.8,286047001.0,N
1644550115.6,286046998.6,N
1644550135.4,286046996.2,N
1644550155.3,286046991.8,N
1644550175.1,286046993.3,N
1644550195.8,286046996.2,N
1644550215.7,286046992.2,N
1644550235.5,286046994.8,N
1644550255.4,286046992.4,N
1644550275.2,286046994.0,N
1644550295.0,286046988.9,N
1644550295.9,286046988.9,N
1644550315.8,286046995.7,N
1644550335.6,286047004.4,N
1644550355.4,286046999.3,N
1644550375.3,286046991.0,N
1644550395.1,286046994.3,N
1644550415.9,286046995.5,N
1644550435.7,286046995.3,N
1644550455.5,286046993.6,N
1644550475.4,286046997.8,N
1644550495.2,286046998.8,N
1644550515.0,286046996.4,N
1644550516.0,286046996.4,N
1644550535.8,286046988.7,Y
1644550555.6,286046998.8,P
1644550575.5,286046999.7,N
1644550595.3,286046997.4,N
1644550615.1,286046999.2,N
1644550635.9,286047000.2,N
1644550655.7,286046996.9,N
1644550675.5,286047000.6,N
1644550695.4,286047000.3,N
1644550715.2,286047002.6,N
1644550735.1,286047002.3,N
1644550736.0,286047002.3,N
1644550755.8,286046999.7,N
1644550775.6,286047002.0,N
1644550795.5,286047003.7,N
1644550815.3,286047011.9,Y
1644550835.1,286047012.3,P
1644550855.9,286047002.9,N
1644550875.7,286047007.6,N
1644550895.6,286047005.2,N
1644550915.4,286047004.7,N
1644550935.2,286047002.6,N
1644550955.1,286046998.3,N
1644550956.0,286046998.3,N
1644550975.8,286047001.1,N
1644550995.7,286047004.1,N
1644551015.5,286047004.7,N
1644551035.3,286047000.4,N
1644551055.2,286047000.7,N
1644551075.0,286047005.5,N
1644551075.9,286047005.5,N
1644551095.7,286047005.3,N
1644551115.6,286047008.8,N
1644551135.4,286047007.9,N
1644551155.3,286047006.6,N
1644551175.1,286047000.7,N
1644551176.0,286047000.7,N
1644551195.8,286047002.7,N
1644551215.7,286046999.4,N
1644551235.5,286046995.3,N
1644551255.3,286046994.9,N
1644551275.2,286047000.3,N
1644551295.0,286046999.0,N
1644551295.9,286046999.0,N
1644551315.8,286046997.1,N
1644551335.6,286046995.7,N
1644551355.4,286046997.1,N
1644551375.3,286046997.8,N
1644551395.1,286046993.4,N
1644551415.8,286046998.9,N
1644551435.7,286047002.0,N
1644551455.5,286047001.6,N
1644551475.4,286046995.1,N
1644551495.2,286046997.2,N
1644551515.0,286047007.1,N
1644551515.9,286047007.1,N
1644551535.8,286047007.6,N
1644551555.6,286047000.7,N
1644551575.5,286047004.1,N
1644551595.3,286047004.1,N
1644551615.1,286047001.9,N
1644551635.9,286046999.0,N
1644551655.7,286046998.0,N
1644551675.5,286046993.0,N
1644551695.4,286046988.5,N
1644551715.2,286046987.1,Y
1644551765.1,286046990.3,E
1644551775.0,286046997.3,N
1644551775.9,286046997.3,P
1644551795.7,286047008.7,P
1644551815.6,286047002.8,N
1644551835.4,286046995.7,N
1644551855.3,286046997.2,N
1644551875.1,286046998.3,N
1644551876.0,286046998.3,N
1644551895.8,286047002.6,N
1644551915.7,286047008.2,N
1644551935.5,286047007.2,N
1644551955.4,286047016.8,Y
1644551975.2,286047010.0,P
1644551995.0,286047008.7,N
1644551995.9,286047008.7,N
